sat.trackr.live / text

‹ back to catalog

STARLINK-3394

NORAD 51118 · 2022-005Q

PAYLOAD ACTIVE UNKNOWN

§ Identity

Operator
Country
US
Launch date
2022-01-19
Launch site
AFETR
Launch vehicle
Mass (kg)
RCS (m²)

Purposes: comms

External: N2YO · Heavens-Above · Gunter

§ Orbital elements

Epoch: 2026-09-20T03:47:06.676224Z

Period
93.85 min
Inclination
53.1605°
Eccentricity
0.0001394
Mean motion
15.34389515 rev/d
Perigee alt
461.8 km
Apogee alt
463.7 km
Semi-major
6,840.9 km
B*
1.9439e-5
RAAN
126.9670°
Arg perigee
84.2479°
Mean anomaly
275.8682°
Rev number
25,835

§ Raw data

STARLINK-33941 51118U 22005Q   26263.15771616  .00000280  00000+0  19439-4 0  99972 51118  53.1605 126.9670 0001394  84.2479 275.8682 15.34389515258355

JSON: /api/v1/satellites/51118 · /tle

For live sub-satellite position, see the globe view (requires WebGL).

§ Visibility from observer

Set your observer location to see the next 7 days of passes ≥ 10°. The values pass through the URL so the page stays shareable.

No JS? Fill the form by hand. The geolocation button needs JavaScript.